• In Denmark
  • List of Countries
  • For 7 days
  • Water Temperature
  • Satellite Maps
  • Weather Map
  • Weather Widgets
  • user-avatar
    Login

    Hourly Weather Bolshoy Aksu

    Today, 16 October, Tuesday

    Time Temperature Precipitation Wind Pressure Humidity
    00:00 +8°C° 0 mm 3 mps 645 mmHg 40%
    01:00 +6°C° 0 mm 4 mps 645 mmHg 42%
    02:00 +6°C° 0 mm 4 mps 645 mmHg 44%
    03:00 +5°C° 0 mm 5 mps 645 mmHg 50%
    04:00 +3°C° 0 mm 5 mps 645 mmHg 55%
    05:00 +2°C° 0 mm 6 mps 646 mmHg 61%
    06:00 +3°C° 0 mm 6 mps 646 mmHg 62%
    07:00 +3°C° 0 mm 6 mps 646 mmHg 63%
    08:00 +3°C° 0 mm 6 mps 647 mmHg 63%
    09:00 +4°C° 0 mm 6 mps 647 mmHg 60%
    10:00 +4°C° 0 mm 6 mps 647 mmHg 56%
    11:00 +5°C° 0 mm 6 mps 647 mmHg 52%
    12:00 +5°C° 0 mm 6 mps 647 mmHg 51%
    13:00 +6°C° 0 mm 5 mps 647 mmHg 50%
    14:00 +6°C° 0 mm 5 mps 647 mmHg 49%
    15:00 +5°C° 0 mm 5 mps 647 mmHg 52%
    16:00 +3°C° 0 mm 5 mps 647 mmHg 56%
    17:00 +2°C° 0 mm 5 mps 647 mmHg 60%
    18:00 +1°C° 0 mm 5 mps 647 mmHg 61%
    19:00 +1°C° 0 mm 5 mps 647 mmHg 63%
    20:00 0°C° 0 mm 5 mps 647 mmHg 65%
    21:00 0°C° 0 mm 5 mps 648 mmHg 66%
    22:00 -2°C° 0 mm 6 mps 648 mmHg 68%
    23:00 -2°C° 0 mm 6 mps 648 mmHg 69%

    Tomorrow, 17 October, Wednesday

    Time Temperature Precipitation Wind Pressure Humidity
    00:00 -3°C° 0.3 mm 6 mps 648 mmHg 72%
    01:00 -3°C° 0.3 mm 7 mps 648 mmHg 75%
    02:00 -4°C° 0.3 mm 7 mps 648 mmHg 77%
    03:00 -4°C° 0.4 mm 7 mps 649 mmHg 78%
    04:00 -4°C° 0.4 mm 7 mps 649 mmHg 79%
    05:00 -6°C° 0.4 mm 7 mps 650 mmHg 80%
    06:00 -6°C° 0.4 mm 7 mps 650 mmHg 79%
    07:00 -6°C° 0.4 mm 7 mps 651 mmHg 78%
    08:00 -6°C° 0.4 mm 7 mps 652 mmHg 77%
    09:00 -4°C° 0.2 mm 7 mps 653 mmHg 75%
    10:00 -4°C° 0.2 mm 6 mps 653 mmHg 72%
    11:00 -4°C° 0.2 mm 6 mps 654 mmHg 69%
    12:00 -3°C° 0 mm 6 mps 654 mmHg 67%
    13:00 -3°C° 0 mm 6 mps 654 mmHg 64%
    14:00 -2°C° 0 mm 5 mps 654 mmHg 62%
    15:00 -2°C° 0 mm 5 mps 654 mmHg 64%
    16:00 -4°C° 0 mm 5 mps 654 mmHg 67%
    17:00 -3°C° 0 mm 4 mps 654 mmHg 69%
    18:00 -4°C° 0 mm 4 mps 654 mmHg 70%
    19:00 -4°C° 0 mm 4 mps 655 mmHg 71%
    20:00 -4°C° 0 mm 4 mps 655 mmHg 72%
    21:00 -4°C° 0.1 mm 4 mps 655 mmHg 72%
    22:00 -5°C° 0.1 mm 3 mps 655 mmHg 72%
    23:00 -5°C° 0.1 mm 3 mps 655 mmHg 72%

    Day after tomorrow, 18 October, Thursday

    Time Temperature Precipitation Wind Pressure Humidity
    00:00 -5°C° 0 mm 3 mps 655 mmHg 70%
    01:00 -5°C° 0 mm 3 mps 655 mmHg 69%
    02:00 -5°C° 0 mm 2 mps 655 mmHg 68%
    03:00 -5°C° 0 mm 2 mps 655 mmHg 67%
    04:00 -6°C° 0 mm 2 mps 655 mmHg 65%
    05:00 -6°C° 0 mm 2 mps 655 mmHg 64%
    06:00 -5°C° 0 mm 2 mps 656 mmHg 60%
    07:00 -4°C° 0 mm 2 mps 656 mmHg 56%
    08:00 -3°C° 0 mm 2 mps 656 mmHg 52%
    09:00 -2°C° 0 mm 3 mps 656 mmHg 49%
    10:00 0°C° 0 mm 3 mps 655 mmHg 45%
    11:00 +1°C° 0 mm 3 mps 654 mmHg 42%
    12:00 +2°C° 0 mm 3 mps 654 mmHg 42%
    13:00 +1°C° 0 mm 4 mps 653 mmHg 42%
    14:00 +3°C° 0 mm 4 mps 653 mmHg 42%
    15:00 0°C° 0 mm 4 mps 652 mmHg 45%
    16:00 0°C° 0 mm 3 mps 652 mmHg 49%
    17:00 -1°C° 0 mm 3 mps 652 mmHg 53%
    18:00 -2°C° 0 mm 3 mps 652 mmHg 53%
    19:00 -2°C° 0 mm 3 mps 652 mmHg 53%
    20:00 -3°C° 0 mm 2 mps 652 mmHg 53%
    21:00 -3°C° 0 mm 2 mps 651 mmHg 52%
    22:00 -3°C° 0 mm 2 mps 651 mmHg 51%
    23:00 -3°C° 0 mm 2 mps 650 mmHg 51%

    19 October, Friday

    Time Temperature Precipitation Wind Pressure Humidity
    00:00 -3°C° 0 mm 2 mps 650 mmHg 50%
    01:00 -3°C° 0 mm 2 mps 649 mmHg 50%
    02:00 -4°C° 0 mm 2 mps 649 mmHg 50%
    03:00 -4°C° 0 mm 2 mps 649 mmHg 50%
    04:00 -2°C° 0 mm 1 mps 649 mmHg 50%
    05:00 -2°C° 0 mm 1 mps 649 mmHg 50%
    06:00 -1°C° 0 mm 1 mps 649 mmHg 48%
    07:00 0°C° 0 mm 1 mps 650 mmHg 45%
    08:00 +2°C° 0 mm 1 mps 650 mmHg 43%
    09:00 +2°C° 0 mm 1 mps 650 mmHg 42%
    10:00 +3°C° 0 mm 1 mps 650 mmHg 40%
    11:00 +4°C° 0 mm 1 mps 650 mmHg 39%
    12:00 +4°C° 0 mm 1 mps 650 mmHg 39%
    13:00 +5°C° 0 mm 1 mps 650 mmHg 40%
    14:00 +5°C° 0 mm 1 mps 650 mmHg 41%
    15:00 +5°C° 0 mm 1 mps 650 mmHg 45%
    16:00 +4°C° 0 mm 1 mps 650 mmHg 49%
    17:00 +2°C° 0 mm 0 mps 651 mmHg 53%
    18:00 +2°C° 0 mm 0 mps 651 mmHg 54%
    19:00 +2°C° 0 mm 0 mps 651 mmHg 56%
    20:00 +1°C° 0 mm 0 mps 652 mmHg 57%
    21:00 +1°C° 0.1 mm 0 mps 652 mmHg 59%
    22:00 +2°C° 0.1 mm 1 mps 652 mmHg 61%
    23:00 +2°C° 0.1 mm 1 mps 652 mmHg 62%

    20 October, Saturday

    Time Temperature Precipitation Wind Pressure Humidity
    00:00 +1°C° 0.2 mm 1 mps 652 mmHg 64%
    01:00 +1°C° 0.2 mm 1 mps 652 mmHg 66%
    02:00 +1°C° 0.2 mm 1 mps 653 mmHg 69%
    03:00 +1°C° 0.1 mm 1 mps 653 mmHg 70%
    04:00 0°C° 0.1 mm 1 mps 653 mmHg 72%
    05:00 0°C° 0.1 mm 1 mps 654 mmHg 74%
    06:00 +1°C° 0.1 mm 1 mps 654 mmHg 71%
    07:00 +2°C° 0.1 mm 1 mps 655 mmHg 68%
    08:00 +3°C° 0.1 mm 1 mps 655 mmHg 66%
    09:00 +2°C° 0 mm 2 mps 655 mmHg 63%
    10:00 +3°C° 0 mm 2 mps 655 mmHg 61%
    11:00 +4°C° 0 mm 2 mps 655 mmHg 58%
    12:00 +5°C° 0 mm 2 mps 655 mmHg 57%
    13:00 +5°C° 0 mm 2 mps 655 mmHg 56%
    14:00 +5°C° 0 mm 2 mps 655 mmHg 56%
    15:00 +4°C° 0 mm 2 mps 655 mmHg 59%
    16:00 +3°C° 0 mm 2 mps 655 mmHg 63%
    17:00 +3°C° 0 mm 1 mps 655 mmHg 67%
    18:00 +3°C° 0 mm 1 mps 656 mmHg 66%
    19:00 +2°C° 0 mm 1 mps 656 mmHg 66%
    20:00 +2°C° 0 mm 1 mps 656 mmHg 66%
    21:00 +2°C° 0 mm 1 mps 656 mmHg 66%
    22:00 +2°C° 0 mm 1 mps 656 mmHg 66%
    23:00 +2°C° 0 mm 1 mps 656 mmHg 67%

    21 October, Sunday

    Time Temperature Precipitation Wind Pressure Humidity
    00:00 +1°C° 0 mm 1 mps 656 mmHg 67%
    01:00 +1°C° 0 mm 1 mps 655 mmHg 67%
    02:00 +1°C° 0 mm 1 mps 655 mmHg 67%
    03:00 +1°C° 0 mm 1 mps 655 mmHg 67%
    04:00 0°C° 0 mm 1 mps 655 mmHg 67%
    05:00 0°C° 0 mm 1 mps 655 mmHg 66%
    06:00 +1°C° 0 mm 1 mps 656 mmHg 62%
    07:00 +3°C° 0 mm 1 mps 656 mmHg 58%
    08:00 +3°C° 0 mm 2 mps 656 mmHg 54%
    09:00 +4°C° 0 mm 2 mps 656 mmHg 52%
    10:00 +5°C° 0 mm 2 mps 656 mmHg 50%
    11:00 +7°C° 0 mm 3 mps 656 mmHg 48%
    12:00 +7°C° 0 mm 3 mps 656 mmHg 46%
    13:00 +8°C° 0 mm 3 mps 656 mmHg 45%
    14:00 +8°C° 0 mm 3 mps 656 mmHg 43%
    15:00 +7°C° 0 mm 2 mps 656 mmHg 46%
    16:00 +6°C° 0 mm 2 mps 655 mmHg 49%
    17:00 +4°C° 0 mm 2 mps 655 mmHg 52%
    18:00 +4°C° 0 mm 2 mps 655 mmHg 52%
    19:00 +3°C° 0 mm 2 mps 656 mmHg 53%
    20:00 +3°C° 0 mm 2 mps 656 mmHg 53%
    21:00 +3°C° 0 mm 2 mps 655 mmHg 53%
    22:00 +2°C° 0 mm 2 mps 655 mmHg 53%
    23:00 +2°C° 0 mm 2 mps 655 mmHg 52%
    Show more